Location: *
(32.8667°N, 13.1833°E)
Time: 05:33:12
(UTC+00:00)

NOSS 3-1 (A) - Pass Details

Date: 18 July 2019
Orbit: 774 x 1439 km, 63.4° (Epoch: 18 August)

Event Time Altitude Azimuth Distance (km) Brightness Sun altitude
Exits shadow 21:38:19 46° 281° (W) 1,112 3.9 -31.6°
Maximum altitude 21:39:02 49° 305° (NW) 1,084 3.9 -31.6°
Drops below altitude 10° 21:44:53 10° 20° (NNE) 2,653 6.3 -32.2°
Sets 21:47:43 0° 26° (NNE) 3,702 7.0 -32.4°
